"Timestamp","TZ","WindDir_Mean (deg)","WindSpd_Mean (km/h)","WindSpd_Min (km/h)","WindSpd_Max (km/h)","Temp_Mean (deg)","RH_Mean (%)","MSLP_Mean (hPa)","Rain_Acc (mm)","Rain_Intensity (mm/h)","Hail_Acc (hits/cm2)","Hail_Intensity (hits/cm2hr)","Solar_Mean (W/m2)"
2018/05/06 00:00:00.015,n,288,2.52,1.8,3.24,18.2,72.7,1027.42,0,0,0,0,0.026131
2018/05/06 00:01:00.000,n,161,1.08,0.72,1.44,18.2,72.5,1027.42,0,0,0,0,0.027008
2018/05/06 00:02:00.000,n,193,1.8,1.44,2.16,18.2,72.5,1027.42,0,0,0,0,0.027008
2018/05/06 00:03:00.000,n,142,2.52,0.72,3.96,18.2,72.5,1027.42,0,0,0,0,0.026131
2018/05/06 00:04:00.003,n,222,5.4,4.32,6.12,18.1,72.4,1027.42,0,0,0,0,0.022621
2018/05/06 00:05:00.001,n,198,4.68,4.32,4.68,18.1,72.4,1027.42,0,0,0,0,0.023499
2018/05/06 00:06:00.000,n,195,1.44,0.72,1.44,18.1,72.4,1027.42,0,0,0,0,0.026131
2018/05/06 00:07:00.010,n,206,1.44,1.08,1.44,18.1,72.5,1027.32,0,0,0,0,0.025253
2018/05/06 00:08:00.008,n,275,3.6,3.24,3.6,18.1,72.6,1027.32,0,0,0,0,0.022621
2018/05/06 00:09:00.005,n,199,1.44,1.44,1.8,18.1,72.5,1027.32,0,0,0,0,0.018272
2018/05/06 00:11:00.000,n,85,0.36,0,1.08,18.1,72.8,1027.32,0,0,0,0,0.023499
2018/05/06 00:12:00.000,n,283,2.16,2.16,2.52,18.1,72.8,1027.32,0,0,0,0,0.031319
2018/05/06 00:13:00.000,n,205,1.44,0.72,2.16,18.1,72.9,1027.32,0,0,0,0,0.030479
2018/05/06 00:14:00.000,n,269,3.6,3.24,3.96,18.1,72.9,1027.32,0,0,0,0,0.034828
2018/05/06 00:15:00.008,n,140,2.16,1.8,2.88,18,73,1027.22,0,0,0,0,0.039139
2018/05/06 00:16:00.005,n,249,1.44,0.72,1.8,18,72.9,1027.22,0,0,0,0,0.032196
2018/05/06 00:17:00.003,n,136,1.8,1.44,2.16,18,72.9,1027.22,0,0,0,0,0.029564
2018/05/06 00:18:00.000,n,254,1.8,1.08,3.24,18,73,1027.22,0,0,0,0,0.033073
2018/05/06 00:19:00.000,n,45,1.08,0.36,1.44,18,73,1027.22,0,0,0,0,0.032196
2018/05/06 00:20:00.000,n,290,0.72,0.36,1.44,18,73.1,1027.22,0,0,0,0,0.033073
2018/05/06 00:21:00.000,n,237,0.72,0.72,1.08,18,73.1,1027.22,0,0,0,0,0.029564
2018/05/06 00:22:00.000,n,144,1.08,0.72,1.8,18,73.2,1027.12,0,0,0,0,0.030479
2018/05/06 00:23:00.007,n,121,2.16,1.44,2.88,17.9,73.1,1027.12,0,0,0,0,0.029564
2018/05/06 00:24:00.004,n,251,1.44,0.36,1.8,17.9,73.2,1027.12,0,0,0,0,0.029564
2018/05/06 00:25:00.002,n,236,1.08,0.36,1.44,17.9,73.3,1027.12,0,0,0,0,0.031319
2018/05/06 00:26:00.000,n,155,2.52,1.08,3.24,17.9,73.3,1027.12,0,0,0,0,0.027847
2018/05/06 00:27:00.013,n,244,2.16,1.8,2.52,17.9,73.6,1027.12,0,0,0,0,0.035667
2018/05/06 00:28:00.000,n,256,2.52,2.52,3.24,17.9,73.6,1027.12,0,0,0,0,0.029564
2018/05/06 00:29:00.000,n,311,0.72,0.72,1.8,17.9,73.5,1027.12,0,0,0,0,0.026093
2018/05/06 00:30:00.005,n,160,3.24,2.52,3.24,17.9,73.6,1027.12,0,0,0,0,0.028687
2018/05/06 00:31:00.002,n,241,3.6,2.88,4.32,17.9,73.6,1027.12,0,0,0,0,0.030479
2018/05/06 00:32:00.000,n,262,1.8,1.08,2.88,17.9,73.6,1027.12,0,0,0,0,0.029564
2018/05/06 00:33:00.000,n,114,2.16,1.8,2.16,17.9,73.6,1027.12,0,0,0,0,0.024338
2018/05/06 00:34:00.011,n,220,1.08,0.36,1.8,17.9,73.6,1027.12,0,0,0,0,0.024338
2018/05/06 00:35:00.008,n,219,2.16,1.8,2.52,17.9,73.6,1027.12,0,0,0,0,0.026093
2018/05/06 00:36:00.005,n,203,1.44,0.72,2.16,17.9,73.9,1027.12,0,0,0,0,0.026093
2018/05/06 00:37:00.002,n,240,3.6,2.88,4.32,17.9,73.7,1027.12,0,0,0,0,0.026093
2018/05/06 00:38:00.000,n,238,2.16,1.8,2.16,17.8,73.6,1027.12,0,0,0,0,0.025215
2018/05/06 00:39:00.000,n,219,2.52,2.16,3.6,17.8,73.7,1027.02,0,0,0,0,0.022621
2018/05/06 00:40:00.000,n,245,2.88,2.16,3.24,17.8,73.7,1027.02,0,0,0,0,0.026093
2018/05/06 00:41:00.006,n,231,1.08,0.72,1.44,17.8,73.7,1027.02,0,0,0,0,0.029564
2018/05/06 00:42:00.004,n,231,2.88,2.52,3.96,17.8,73.7,1027.02,0,0,0,0,0.021744
2018/05/06 00:43:00.002,n,189,5.04,3.6,6.48,17.8,73.7,1027.02,0,0,0,0,0.023499
2018/05/06 00:44:00.000,n,210,6.12,5.4,6.48,17.8,73.7,1027.02,0,0,0,0,0.019989
2018/05/06 00:45:00.014,n,64,1.08,0,1.8,17.8,73.9,1027.02,0,0,0,0,0.025215
2018/05/06 00:46:00.000,n,203,4.68,4.32,5.04,17.8,73.8,1026.92,0,0,0,0,0.024338
2018/05/06 00:47:00.000,n,157,5.76,5.04,6.48,17.8,73.7,1026.92,0,0,0,0,0.022621
2018/05/06 00:48:00.000,n,227,2.88,2.52,3.24,17.8,73.8,1026.92,0,0,0,0,0.020866
2018/05/06 00:49:00.002,n,126,1.44,0.72,2.16,17.8,73.8,1026.92,0,0,0,0,0.021744
2018/05/06 00:50:00.000,n,197,3.6,2.88,3.6,17.8,73.7,1026.92,0,0,0,0,0.02697
2018/05/06 00:51:00.000,n,167,2.16,0.72,3.6,17.7,73.8,1026.82,0,0,0,0,0.021744
2018/05/06 00:52:00.010,n,183,2.88,2.16,2.88,17.7,73.8,1026.82,0,0,0,0,0.019989
2018/05/06 00:53:00.007,n,203,1.8,1.44,1.8,17.7,73.8,1026.82,0,0,0,0,0.027008
2018/05/06 00:54:00.005,n,162,4.32,3.24,5.76,17.7,73.9,1026.82,0,0,0,0,0.030479
2018/05/06 00:55:00.000,n,230,2.52,2.16,2.52,17.7,73.8,1026.82,0,0,0,0,0.030479
2018/05/06 00:56:00.000,n,235,1.8,1.44,2.16,17.7,73.9,1026.82,0,0,0,0,0.038338
2018/05/06 00:57:00.000,n,226,2.88,2.16,2.88,17.7,74,1026.82,0,0,0,0,0.027008
2018/05/06 00:58:00.000,n,285,3.24,1.44,4.68,17.7,74,1026.82,0,0,0,0,0.035706
2018/05/06 00:59:00.006,n,179,2.16,1.44,2.52,17.7,74,1026.82,0,0,0,0,0.035706
2018/05/06 01:00:00.004,n,261,1.08,0.36,2.16,17.7,74,1026.82,0,0,0,0,0.02964
2018/05/06 01:01:00.001,n,238,3.6,3.24,3.96,17.7,74,1026.82,0,0,0,0,0.02964
2018/05/06 01:02:00.014,n,248,1.8,1.08,2.52,17.7,74,1026.82,0,0,0,0,0.028763
2018/05/06 01:03:00.012,n,166,4.68,3.96,5.04,17.7,74.2,1026.82,0,0,0,0,0.030479
2018/05/06 01:04:00.000,n,249,3.96,2.88,4.68,17.6,74.2,1026.82,0,0,0,0,0.026131
2018/05/06 01:05:00.000,n,220,2.52,2.16,2.52,17.6,74.3,1026.82,0,0,0,0,0.03746
2018/05/06 01:06:00.003,n,251,3.6,3.24,3.96,17.6,74.3,1026.82,0,0,0,0,0.031357
2018/05/06 01:07:00.001,n,263,2.88,1.44,3.96,17.6,74.3,1026.82,0,0,0,0,0.028763
2018/05/06 01:08:00.000,n,264,3.6,3.6,4.32,17.6,74.6,1026.82,0,0,0,0,0.02964
2018/05/06 01:09:00.000,n,245,1.8,0.36,2.52,17.6,74.9,1026.82,0,0,0,0,0.027885
2018/05/06 01:10:00.011,n,209,2.52,2.16,2.88,17.6,74.6,1026.92,0,0,0,0,0.027885
2018/05/06 01:12:00.009,n,222,1.8,1.08,2.88,17.6,74.6,1026.92,0,0,0,0,0.026131
2018/05/06 01:13:00.000,n,189,7.92,6.12,9,17.6,74.4,1026.92,0,0,0,0,0.029602
2018/05/06 01:14:00.001,n,257,5.4,3.6,6.84,17.6,74.4,1026.92,0,0,0,0,0.029602
2018/05/06 01:15:00.000,n,212,2.52,2.16,3.24,17.6,74.4,1026.92,0,0,0,0,0.027008
2018/05/06 01:16:00.000,n,229,2.88,2.16,4.68,17.6,74.6,1026.92,0,0,0,0,0.030479
2018/05/06 01:17:00.008,n,228,2.16,1.44,2.52,17.6,74.6,1026.92,0,0,0,0,0.027008
2018/05/06 01:18:00.005,n,261,2.52,1.8,3.24,17.6,74.4,1026.92,0,0,0,0,0.031357
2018/05/06 01:19:00.002,n,274,4.68,3.24,5.4,17.6,74.7,1026.92,0,0,0,0,0.024376
2018/05/06 01:20:00.000,n,323,3.6,2.52,4.68,17.6,75.7,1026.92,0,0,0,0,0.028725
2018/05/06 01:21:00.013,n,255,1.44,0.72,1.8,17.6,75,1026.92,0,0,0,0,0.026131
2018/05/06 01:22:00.000,n,253,3.24,2.88,3.96,17.6,74.8,1026.92,0,0,0,0,0.026131
2018/05/06 01:23:00.000,n,128,1.44,1.08,1.8,17.6,74.6,1026.92,0,0,0,0,0.028725
2018/05/06 01:24:00.000,n,250,2.88,2.16,3.24,17.6,74.5,1027.02,0,0,0,0,0.022659
2018/05/06 01:25:00.002,n,290,1.44,0.36,3.24,17.5,74.5,1027.02,0,0,0,0,0.026131
2018/05/06 01:26:00.000,n,294,3.24,2.88,3.6,17.5,74.7,1026.92,0,0,0,0,0.027847
2018/05/06 01:27:00.000,n,248,3.96,3.6,4.68,17.5,74.7,1026.92,0,0,0,0,0.023499
2018/05/06 01:28:00.010,n,200,3.24,1.44,4.32,17.5,74.6,1027.02,0,0,0,0,0.027847
2018/05/06 01:29:00.007,n,132,2.16,1.08,3.24,17.5,74.7,1027.02,0,0,0,0,0.023499
2018/05/06 01:30:00.005,n,207,2.16,2.16,2.52,17.5,74.7,1027.02,0,0,0,0,0.025253
2018/05/06 01:31:00.000,n,185,6.84,6.48,7.2,17.5,74.6,1026.92,0,0,0,0,0.031395
2018/05/06 01:32:00.000,n,228,2.52,1.44,3.24,17.5,74.5,1026.92,0,0,0,0,0.030479
2018/05/06 01:33:00.000,n,155,1.8,0.72,3.24,17.4,74.6,1026.92,0,0,0,0,0.030479
2018/05/06 01:34:00.006,n,170,6.48,6.12,7.2,17.4,74.6,1026.92,0,0,0,0,0.030479
2018/05/06 01:35:00.004,n,167,2.16,1.08,3.24,17.4,74.6,1026.92,0,0,0,0,0.036621
2018/05/06 01:36:00.001,n,191,1.44,0.72,1.8,17.4,74.6,1026.92,0,0,0,0,0.028763
2018/05/06 01:37:00.000,n,282,1.44,0.36,2.16,17.4,74.8,1026.92,0,0,0,0,0.027885
2018/05/06 01:38:00.013,n,357,0.72,0.36,0.72,17.4,74.8,1026.92,0,0,0,0,0.028763
2018/05/06 01:39:00.011,n,176,3.6,2.52,4.32,17.4,74.6,1026.92,0,0,0,0,0.027885
2018/05/06 01:40:00.000,n,133,1.08,0.72,1.8,17.4,74.6,1026.92,0,0,0,0,0.025253
2018/05/06 01:41:00.000,n,284,2.52,1.8,2.88,17.4,74.7,1026.92,0,0,0,0,0.028763
2018/05/06 01:42:00.002,n,233,4.32,2.88,5.4,17.4,74.8,1026.92,0,0,0,0,0.025253
2018/05/06 01:43:00.000,n,26,2.52,1.8,3.6,17.4,75.1,1026.92,0,0,0,0,0.033112
2018/05/06 01:44:00.000,n,206,2.52,1.8,3.96,17.4,75,1026.92,0,0,0,0,0.026131
2018/05/06 01:45:00.009,n,255,2.88,2.52,3.6,17.4,74.8,1026.92,0,0,0,0,0.024414
2018/05/06 01:46:00.007,n,230,0.72,0.72,1.44,17.4,74.9,1026.92,0,0,0,0,0.023537
2018/05/06 01:47:00.004,n,211,2.88,2.16,3.24,17.3,74.9,1026.92,0,0,0,0,0.025253
2018/05/06 01:48:00.001,n,264,2.52,2.16,2.88,17.3,74.9,1026.92,0,0,0,0,0.024414
2018/05/06 01:49:00.000,n,201,1.08,0.36,1.8,17.3,75.2,1026.92,0,0,0,0,0.033989
2018/05/06 01:50:00.000,n,244,2.52,1.8,3.24,17.3,75.2,1026.92,0,0,0,0,0.027885
2018/05/06 01:51:00.000,n,300,3.24,1.44,4.32,17.3,75.4,1026.92,0,0,0,0,0.023537
2018/05/06 01:52:00.007,n,274,2.16,1.44,2.52,17.3,75.2,1026.92,0,0,0,0,0.025253
2018/05/06 01:53:00.004,n,249,2.16,1.8,2.52,17.3,75.1,1026.92,0,0,0,0,0.021782
2018/05/06 01:54:00.001,n,300,5.76,4.32,6.48,17.3,75,1026.92,0,0,0,0,0.025253
2018/05/06 01:55:00.000,n,170,2.52,2.16,3.24,17.3,75.1,1026.92,0,0,0,0,0.023537
2018/05/06 01:56:00.011,n,303,0.72,0.36,0.72,17.2,75.1,1026.82,0,0,0,0,0.029602
2018/05/06 01:57:00.006,n,210,0.36,0,1.08,17.2,75.2,1026.82,0,0,0,0,0.035667
2018/05/06 01:58:00.000,n,274,1.08,0.72,1.8,17.2,75.1,1026.82,0,0,0,0,0.040932
2018/05/06 01:59:00.001,n,187,3.96,1.8,5.04,17.2,75.1,1026.82,0,0,0,0,0.028725
2018/05/06 02:00:00.000,n,196,2.88,2.16,3.6,17.2,75.1,1026.82,0,0,0,0,0.029602
2018/05/06 02:01:00.000,n,216,4.68,3.96,5.04,17.2,75.1,1026.82,0,0,0,0,0.030479
2018/05/06 02:02:00.007,n,263,4.32,3.24,5.4,17.2,75.1,1026.82,0,0,0,0,0.029602
2018/05/06 02:03:00.005,n,267,2.52,2.16,2.88,17.2,75.1,1026.82,0,0,0,0,0.028725
2018/05/06 02:04:00.001,n,208,2.16,0.36,3.24,17.2,75.4,1026.82,0,0,0,0,0.029602
2018/05/06 02:05:00.014,n,169,2.88,2.52,3.24,17.2,75.4,1026.72,0,0,0,0,0.02697
2018/05/06 02:06:00.012,n,305,3.24,2.16,3.96,17.2,75.5,1026.72,0,0,0,0,0.032234
2018/05/06 02:07:00.000,n,37,0.72,0.36,1.08,17.2,75.7,1026.72,0,0,0,0,0.027885
2018/05/06 02:09:00.000,n,208,1.08,1.08,1.44,17.2,75.4,1026.72,0,0,0,0,0.020027
2018/05/06 02:10:00.004,n,164,0.36,0.36,1.08,17.2,75.4,1026.72,0,0,0,0,0.024414
2018/05/06 02:11:00.002,n,204,2.88,2.52,3.6,17.2,75.2,1026.72,0,0,0,0,0.022621
2018/05/06 02:12:00.000,n,210,6.84,5.4,8.28,17.2,75.2,1026.72,0,0,0,0,0.023537
2018/05/06 02:13:00.012,n,189,0.72,0.72,1.08,17.2,75.1,1026.72,0,0,0,0,0.020027
2018/05/06 02:14:00.010,n,222,2.16,1.8,2.52,17.2,75.1,1026.72,0,0,0,0,0.021782
2018/05/06 02:15:00.006,n,238,2.16,1.08,3.24,17.1,75.2,1026.72,0,0,0,0,0.032234
2018/05/06 02:16:00.000,n,185,7.92,7.2,9.72,17.1,75.1,1026.72,0,0,0,0,0.022621
2018/05/06 02:17:00.000,n,245,3.24,2.16,3.6,17.1,75.1,1026.72,0,0,0,0,0.020905
2018/05/06 02:18:00.000,n,271,2.16,1.8,3.24,17.1,75,1026.72,0,0,0,0,0.020905
2018/05/06 02:19:00.000,n,213,9.72,6.48,11.52,17.1,75,1026.72,0,0,0,0,0.020905
2018/05/06 02:20:00.007,n,160,7.2,3.96,11.16,17.1,74.9,1026.62,0,0,0,0,0.022621
2018/05/06 02:21:00.004,n,171,7.92,4.68,9,17.1,74.9,1026.62,0,0,0,0,0.023537
2018/05/06 02:22:00.001,n,251,1.44,1.08,3.24,17.2,74.8,1026.62,0,0,0,0,0.019188
2018/05/06 02:23:00.000,n,138,1.8,1.08,2.88,17.2,74.8,1026.62,0,0,0,0,0.023537
2018/05/06 02:24:00.011,n,173,3.6,3.24,4.68,17.2,74.9,1026.62,0,0,0,0,0.020905
2018/05/06 02:25:00.000,n,162,5.4,3.96,7.2,17.1,74.8,1026.52,0,0,0,0,0.023537
2018/05/06 02:26:00.000,n,172,9.72,6.84,12.24,17.1,74.6,1026.52,0,0,0,0,0.030479
2018/05/06 02:27:00.003,n,160,9.36,7.2,12.24,17.1,74.6,1026.52,0,0,0,0,0.022621
2018/05/06 02:28:00.000,n,220,5.76,2.52,8.28,17.1,74.6,1026.52,0,0,0,0,0.027885
2018/05/06 02:29:00.000,n,225,6.48,3.6,9,17.1,74.5,1026.52,0,0,0,0,0.030479
2018/05/06 02:30:00.000,n,225,3.6,3.24,4.32,17.1,74.6,1026.52,0,0,0,0,0.021782
2018/05/06 02:31:00.008,n,171,6.12,3.96,8.28,17.1,74.5,1026.42,0,0,0,0,0.029602
2018/05/06 02:32:00.003,n,172,16.2,12.96,19.44,17.1,74.5,1026.52,0,0,0,0,0.033073
2018/05/06 02:33:00.000,n,168,11.88,11.16,13.32,17.1,74.4,1026.52,0,0,0,0,0.032234
2018/05/06 02:34:00.000,n,192,6.84,6.12,7.56,17.1,74.4,1026.52,0,0,0,0,0.031357
2018/05/06 02:35:00.000,n,174,10.440002,6.48,13.68,17.1,74.3,1026.52,0,0,0,0,0.027008
2018/05/06 02:36:00.000,n,188,6.84,6.12,7.92,17.1,74.3,1026.52,0,0,0,0,0.032234
2018/05/06 02:37:00.005,n,219,6.12,2.88,7.92,17.1,74.3,1026.52,0,0,0,0,0.032234
2018/05/06 02:38:00.003,n,195,8.64,7.2,10.08,17.1,74.3,1026.52,0,0,0,0,0.031357
2018/05/06 02:39:00.000,n,197,9.36,8.28,10.8,17.1,74.3,1026.42,0,0,0,0,0.032234
2018/05/06 02:40:00.000,n,216,3.96,3.24,5.04,17.1,74.2,1026.42,0,0,0,0,0.029602
2018/05/06 02:41:00.011,n,159,14.04,3.6,17.64,17.1,74.2,1026.42,0,0,0,0,0.033073
2018/05/06 02:42:00.008,n,181,9.72,2.16,15.12,17.1,74.2,1026.42,0,0,0,0,0.033073
2018/05/06 02:43:00.000,n,210,5.76,3.6,8.64,17.1,74.2,1026.42,0,0,0,0,0.030479
2018/05/06 02:44:00.002,n,181,6.48,4.32,10.440002,17.1,74.1,1026.42,0,0,0,0,0.030479
2018/05/06 02:45:00.000,n,226,3.96,2.88,5.4,17.1,74.2,1026.42,0,0,0,0,0.033073
2018/05/06 02:46:00.000,n,192,6.48,5.4,8.28,17,74.2,1026.42,0,0,0,0,0.028725
2018/05/06 02:47:00.000,n,237,2.16,1.8,2.88,17,74.2,1026.42,0,0,0,0,0.029602
2018/05/06 02:48:00.006,n,36,2.16,1.08,5.04,17,74.3,1026.42,0,0,0,0,0.030479
2018/05/06 02:49:00.003,n,239,2.52,0.36,3.96,17,74.3,1026.42,0,0,0,0,0.029602
2018/05/06 02:50:00.000,n,200,9.36,5.04,11.88,17,74.3,1026.42,0,0,0,0,0.027008
2018/05/06 02:51:00.015,n,192,1.44,0.72,2.16,17,74.3,1026.42,0,0,0,0,0.031357
2018/05/06 02:52:00.000,n,156,2.52,0.72,4.32,17,74.3,1026.42,0,0,0,0,0.031357
2018/05/06 02:53:00.000,n,188,3.6,2.52,4.68,17,74.3,1026.32,0,0,0,0,0.032234
2018/05/06 02:54:00.000,n,322,1.08,0,2.16,17,74.4,1026.42,0,0,0,0,0.029602
2018/05/06 02:55:00.004,n,180,15.12,13.32,16.2,17,74.4,1026.42,0,0,0,0,0.030479
2018/05/06 02:56:00.001,n,170,10.440002,9.36,11.52,17,74.5,1026.42,0,0,0,0,0.030479
2018/05/06 02:57:00.000,n,195,5.76,3.24,7.2,16.9,74.5,1026.42,0,0,0,0,0.029602
2018/05/06 02:58:00.012,n,202,5.76,5.04,6.84,16.9,74.6,1026.42,0,0,0,0,0.027885
2018/05/06 02:59:00.009,n,169,6.48,4.68,8.28,16.9,74.6,1026.42,0,0,0,0,0.028725
2018/05/06 03:00:00.006,n,193,6.84,6.48,7.92,16.9,74.5,1026.42,0,0,0,0,0.027885
2018/05/06 03:01:00.000,n,237,4.32,3.24,4.68,16.9,74.6,1026.42,0,0,0,0,0.031357
2018/05/06 03:02:00.001,n,254,5.4,4.68,6.84,16.9,74.6,1026.52,0,0,0,0,0.030479
2018/05/06 03:03:00.000,n,165,8.64,7.92,10.08,16.9,74.7,1026.52,0,0,0,0,0.033073
2018/05/06 03:04:00.000,n,161,9.36,8.64,10.8,16.9,74.7,1026.52,0,0,0,0,0.026131
2018/05/06 03:06:00.002,n,48,1.08,0.36,1.44,16.9,74.9,1026.52,0,0,0,0,0.035706
2018/05/06 03:07:00.012,n,213,1.08,0.36,2.16,16.9,74.8,1026.52,0,0,0,0,0.033951
2018/05/06 03:08:00.009,n,209,5.4,4.32,6.12,16.9,74.8,1026.52,0,0,0,0,0.034828
2018/05/06 03:09:00.006,n,215,1.08,0.36,2.16,16.9,74.8,1026.52,0,0,0,0,0.031357
2018/05/06 03:10:00.000,n,204,3.6,2.88,4.68,16.8,74.9,1026.52,0,0,0,0,0.034828
2018/05/06 03:11:00.001,n,177,2.88,1.8,3.24,16.8,75,1026.52,0,0,0,0,0.034828
2018/05/06 03:12:00.000,n,169,5.04,3.6,6.12,16.8,75,1026.52,0,0,0,0,0.033073
2018/05/06 03:13:00.000,n,122,2.52,1.8,3.24,16.8,75,1026.52,0,0,0,0,0.033951
2018/05/06 03:14:00.000,n,167,12.6,11.52,13.68,16.8,75,1026.52,0,0,0,0,0.036545
2018/05/06 03:15:00.005,n,178,3.24,0.72,4.32,16.8,75,1026.52,0,0,0,0,0.033951
2018/05/06 03:16:00.002,n,250,1.44,1.08,1.8,16.8,74.9,1026.52,0,0,0,0,0.039177
2018/05/06 03:17:00.000,n,213,5.76,5.04,6.48,16.8,75,1026.42,0,0,0,0,0.031357
2018/05/06 03:18:00.014,n,238,4.32,3.6,5.04,16.8,75.1,1026.52,0,0,0,0,0.033951
2018/05/06 03:19:00.000,n,267,2.52,1.44,3.6,16.8,75,1026.52,0,0,0,0,0.032196
2018/05/06 03:20:00.000,n,128,4.32,2.88,6.48,16.8,75.1,1026.42,0,0,0,0,0.029602
2018/05/06 03:21:00.000,n,229,2.52,2.16,2.52,16.8,75.1,1026.52,0,0,0,0,0.033073
2018/05/06 03:22:00.003,n,296,0.72,0.36,1.08,16.8,75.1,1026.52,0,0,0,0,0.032196
2018/05/06 03:23:00.000,n,162,7.92,7.2,9,16.8,75.1,1026.52,0,0,0,0,0.030479
2018/05/06 03:24:00.000,n,259,3.96,3.24,5.04,16.700002,75,1026.52,0,0,0,0,0.032196
2018/05/06 03:25:00.010,n,206,5.76,4.32,6.48,16.700002,75,1026.52,0,0,0,0,0.038338
2018/05/06 03:26:00.007,n,271,2.52,1.8,2.88,16.700002,74.9,1026.52,0,0,0,0,0.029602
2018/05/06 03:27:00.005,n,155,3.24,1.44,5.04,16.700002,75,1026.52,0,0,0,0,0.031357
2018/05/06 03:28:00.002,n,83,2.16,1.44,2.88,16.700002,74.9,1026.52,0,0,0,0,0.033951
2018/05/06 03:29:00.000,n,214,2.52,1.8,3.96,16.700002,74.9,1026.42,0,0,0,0,0.030479
2018/05/06 03:30:00.000,n,56,0.72,0.72,0.72,16.700002,74.8,1026.42,0,0,0,0,0.033073
2018/05/06 03:31:00.000,n,312,2.16,1.44,5.04,16.700002,75.1,1026.52,0,0,0,0,0.033073
2018/05/06 03:32:00.007,n,156,4.68,1.08,7.2,16.700002,74.9,1026.42,0,0,0,0,0.030479
2018/05/06 03:33:00.005,n,160,8.64,7.56,10.440002,16.700002,74.9,1026.42,0,0,0,0,0.035706
2018/05/06 03:34:00.002,n,147,5.4,2.16,7.92,16.700002,74.9,1026.42,0,0,0,0,0.032196
2018/05/06 03:35:00.000,n,190,4.32,2.16,5.04,16.700002,74.8,1026.42,0,0,0,0,0.033073
2018/05/06 03:36:00.012,n,181,5.04,3.24,6.84,16.700002,74.9,1026.42,0,0,0,0,0.031357
2018/05/06 03:37:00.000,n,179,7.2,5.76,8.28,16.700002,74.8,1026.42,0,0,0,0,0.026131
2018/05/06 03:38:00.000,n,160,4.68,3.96,5.04,16.700002,74.8,1026.42,0,0,0,0,0.032196
2018/05/06 03:39:00.004,n,310,1.44,0.36,4.68,16.700002,74.8,1026.52,0,0,0,0,0.033951
2018/05/06 03:40:00.001,n,184,6.48,5.76,6.48,16.700002,74.8,1026.52,0,0,0,0,0.031357
2018/05/06 03:41:00.000,n,164,4.68,3.96,5.4,16.700002,74.7,1026.52,0,0,0,0,0.028725
2018/05/06 03:42:00.000,n,195,8.28,5.4,9.36,16.700002,74.7,1026.52,0,0,0,0,0.031357
2018/05/06 03:43:00.009,n,204,7.2,6.12,8.28,16.700002,74.7,1026.52,0,0,0,0,0.032196
2018/05/06 03:44:00.006,n,272,1.08,0.72,1.44,16.700002,74.7,1026.52,0,0,0,0,0.032196
2018/05/06 03:45:00.003,n,244,5.4,5.04,6.12,16.700002,74.7,1026.52,0,0,0,0,0.027847
2018/05/06 03:46:00.002,n,234,3.24,3.24,3.6,16.700002,74.7,1026.52,0,0,0,0,0.030479
2018/05/06 03:47:00.000,n,215,3.24,1.8,3.6,16.700002,74.7,1026.52,0,0,0,0,0.027847
2018/05/06 03:48:00.000,n,220,5.76,4.68,6.84,16.6,74.8,1026.52,0,0,0,0,0.030479
2018/05/06 03:49:00.000,n,220,1.44,0.72,2.16,16.6,75,1026.52,0,0,0,0,0.027847
2018/05/06 03:50:00.008,n,239,3.24,2.52,3.6,16.6,75,1026.52,0,0,0,0,0.028725
2018/05/06 03:51:00.005,n,194,5.4,5.04,6.12,16.6,74.9,1026.52,0,0,0,0,0.028725
2018/05/06 03:52:00.002,n,258,5.04,3.24,6.48,16.6,74.8,1026.52,0,0,0,0,0.027847
2018/05/06 03:53:00.000,n,188,1.44,0.72,2.88,16.6,74.8,1026.52,0,0,0,0,0.027847
2018/05/06 03:54:00.012,n,220,6.84,6.12,7.56,16.6,74.7,1026.52,0,0,0,0,0.026131
2018/05/06 03:55:00.000,n,224,1.44,0.36,2.16,16.6,74.7,1026.52,0,0,0,0,0.028725
2018/05/06 03:56:00.000,n,215,2.88,1.8,3.6,16.6,74.6,1026.62,0,0,0,0,0.02697
2018/05/06 03:57:00.003,n,93,1.44,0.36,2.16,16.6,74.8,1026.62,0,0,0,0,0.02697
2018/05/06 03:58:00.000,n,269,4.68,3.96,5.76,16.6,74.7,1026.62,0,0,0,0,0.029602
2018/05/06 03:59:00.000,n,179,3.96,2.16,4.68,16.6,74.7,1026.62,0,0,0,0,0.029602
2018/05/06 04:00:00.000,n,153,0.72,0,1.44,16.6,74.7,1026.72,0,0,0,0,0.028725
2018/05/06 04:01:00.009,n,265,1.44,1.08,1.8,16.6,74.6,1026.72,0,0,0,0,0.026131
2018/05/06 04:02:00.006,n,221,5.4,3.6,6.48,16.6,74.7,1026.72,0,0,0,0,0.028725
2018/05/06 04:04:00.000,n,290,3.24,1.08,4.32,16.6,74.7,1026.62,0,0,0,0,0.027847
2018/05/06 04:05:00.000,n,205,4.32,3.6,4.68,16.5,74.8,1026.62,0,0,0,0,0.041809
2018/05/06 04:06:00.000,n,183,2.16,1.44,3.24,16.5,74.7,1026.62,0,0,0,0,0.042648
2018/05/06 04:07:00.000,n,216,2.52,0.36,4.68,16.5,74.7,1026.62,0,0,0,0,0.042648
2018/05/06 04:08:00.008,n,106,2.52,1.8,2.88,16.5,74.7,1026.62,0,0,0,0,0.040932
2018/05/06 04:09:00.005,n,260,1.44,0.72,2.52,16.5,74.7,1026.62,0,0,0,0,0.043564
2018/05/06 04:10:00.003,n,188,1.44,0.36,2.88,16.5,74.8,1026.62,0,0,0,0,0.040054
2018/05/06 04:11:00.000,n,199,2.16,1.8,2.52,16.5,74.7,1026.62,0,0,0,0,0.035706
2018/05/06 04:12:00.013,n,243,4.32,3.96,4.32,16.5,74.8,1026.62,0,0,0,0,0.037422
2018/05/06 04:13:00.000,n,207,2.52,1.44,3.24,16.5,74.9,1026.62,0,0,0,0,0.040932
2018/05/06 04:14:00.000,n,269,2.16,2.16,2.52,16.5,75.2,1026.62,0,0,0,0,0.040932
2018/05/06 04:15:00.005,n,242,2.88,2.16,3.96,16.5,75.1,1026.62,0,0,0,0,0.0383
2018/05/06 04:16:00.002,n,182,2.16,2.16,2.52,16.5,75,1026.62,0,0,0,0,0.039215
2018/05/06 04:17:00.000,n,254,2.88,2.52,3.96,16.4,75.1,1026.62,0,0,0,0,0.036583
2018/05/06 04:18:00.000,n,298,3.96,2.16,5.4,16.4,75.8,1026.62,0,0,0,0,0.040054
2018/05/06 04:19:00.010,n,246,2.52,0.72,3.6,16.4,75.5,1026.62,0,0,0,0,0.0383
2018/05/06 04:20:00.009,n,125,2.52,1.44,3.24,16.4,75.4,1026.62,0,0,0,0,0.031357
2018/05/06 04:21:00.005,n,275,1.44,0.72,1.8,16.4,75.5,1026.62,0,0,0,0,0.040054
2018/05/06 04:22:00.000,n,187,4.32,3.6,5.04,16.4,75.5,1026.62,0,0,0,0,0.036583
2018/05/06 04:23:00.000,n,169,1.8,0.72,2.16,16.4,75.4,1026.62,0,0,0,0,0.035706
2018/05/06 04:24:00.000,n,211,3.96,3.96,4.32,16.3,75.5,1026.72,0,0,0,0,0.032234
2018/05/06 04:25:00.000,n,220,3.6,2.16,5.76,16.3,76,1026.72,0,0,0,0,0.028725
2018/05/06 04:26:00.008,n,231,3.6,2.88,4.32,16.3,75.8,1026.72,0,0,0,0,0.030479
2018/05/06 04:27:00.005,n,217,2.52,1.44,3.24,16.3,75.8,1026.72,0,0,0,0,0.030479
2018/05/06 04:28:00.002,n,265,5.04,3.96,6.84,16.3,75.9,1026.72,0,0,0,0,0.029602
2018/05/06 04:29:00.000,n,308,1.44,1.08,1.8,16.3,76.1,1026.62,0,0,0,0,0.030479
2018/05/06 04:30:00.013,n,197,2.52,0.72,3.96,16.3,76.1,1026.62,0,0,0,0,0.031357
2018/05/06 04:31:00.000,n,191,4.32,3.96,5.04,16.3,76.1,1026.62,0,0,0,0,0.033073
2018/05/06 04:32:00.000,n,206,1.44,1.08,2.16,16.3,76.1,1026.62,0,0,0,0,0.033073
2018/05/06 04:33:00.005,n,213,3.24,2.52,4.68,16.3,76.2,1026.72,0,0,0,0,0.030479
2018/05/06 04:34:00.003,n,257,5.76,5.4,6.48,16.200002,76.2,1026.72,0,0,0,0,0.027008
2018/05/06 04:35:00.000,n,228,3.96,2.88,4.68,16.200002,76.3,1026.72,0,0,0,0,0.030479
2018/05/06 04:36:00.000,n,251,2.16,1.8,3.24,16.200002,76.4,1026.72,0,0,0,0,0.031357
2018/05/06 04:37:00.009,n,262,2.52,2.16,2.88,16.200002,76.7,1026.72,0,0,0,0,0.027008
2018/05/06 04:38:00.007,n,266,5.4,4.32,5.76,16.200002,76.6,1026.82,0,0,0,0,0.030479
2018/05/06 04:39:00.003,n,281,4.32,3.96,5.04,16.200002,76.7,1026.82,0,0,0,0,0.035706
2018/05/06 04:40:00.001,n,251,2.88,2.52,3.6,16.200002,76.9,1026.82,0,0,0,0,0.027847
2018/05/06 04:41:00.000,n,270,3.96,3.6,4.68,16.200002,76.9,1026.82,0,0,0,0,0.035706
2018/05/06 04:42:00.000,n,237,5.76,5.04,6.12,16.200002,77.1,1026.82,0,0,0,0,0.028725
2018/05/06 04:43:00.000,n,231,3.24,2.88,3.6,16.1,77.2,1026.82,0,0,0,0,0.027008
2018/05/06 04:44:00.005,n,234,3.96,3.24,4.68,16.1,77.2,1026.82,0,0,0,0,0.025253
2018/05/06 04:45:00.002,n,219,2.16,1.44,2.88,16.1,77.6,1026.82,0,0,0,0,0.023499
2018/05/06 04:46:00.000,n,272,8.28,7.92,9.36,16.1,77.3,1026.82,0,0,0,0,0.031357
2018/05/06 04:47:00.012,n,246,6.12,5.04,6.84,16.1,77.4,1026.82,0,0,0,0,0.029602
2018/05/06 04:48:00.009,n,262,4.32,3.6,4.68,16,77.5,1026.92,0,0,0,0,0.027847
2018/05/06 04:49:00.000,n,265,3.24,2.52,4.32,16,77.5,1026.92,0,0,0,0,0.027847
2018/05/06 04:50:00.002,n,277,2.88,2.16,3.6,16,77.6,1026.92,0,0,0,0,0.025253
2018/05/06 04:51:00.000,n,261,5.76,4.32,8.28,16,77.8,1026.92,0,0,0,0,0.025253
2018/05/06 04:52:00.000,n,271,2.88,2.52,3.24,15.9,77.8,1026.92,0,0,0,0,0.027847
2018/05/06 04:53:00.000,n,241,2.88,2.16,3.24,15.9,77.8,1026.92,0,0,0,0,0.027008
2018/05/06 04:54:00.007,n,239,3.96,3.24,4.68,15.9,77.9,1026.92,0,0,0,0,0.031357
2018/05/06 04:55:00.005,n,254,5.76,4.32,7.2,15.9,78,1026.92,0,0,0,0,0.026131
2018/05/06 04:56:00.002,n,268,6.84,6.12,7.56,15.9,78.2,1027.02,0,0,0,0,0.023499
2018/05/06 04:57:00.015,n,250,6.84,5.76,8.28,15.9,78.3,1027.02,0,0,0,0,0.027008
2018/05/06 04:58:00.000,n,229,2.52,0.72,3.96,15.9,78.5,1027.02,0,0,0,0,0.032234